FALCON 9 R/B, 60234

Orbit data source: Space-Track

FALCON 9 R/B, 60234 is space debris in HEO originally from a launch on Mon, 08 Jul 2024 UTC launched from the Air Force Eastern Test Range (AFETR). Debris objects in space refer to the collection of defunct objects orbiting the Earth. Examples of debris include non-operational satellites, rocket bodies, and fragments generated from explosions, collisions, or faulty payload assembly.

Loading next visibility...
Identifier
60234, 2024-127B
Orbit
HEO
Country
Flag of USUS
Related business
Manufacturer
SpaceX
Mission
Spacecraft
Bus & Motor
F9ST2, Unknown motor
Mass
~4,000 kg wet, ~4,000 kg dry
Launch date (UTC)
2024-07-08 (2 years ago)
Launch vehicle
Unknown
Launch site
Air Force Eastern Test Range (AFETR)
Object type
Payload
Rocket body
Debris
Shape & HBR
Cyl, 7.8 m
Radar Cross Section
39.980 m², Large (>1 m²)

Expand to show TLE details & history
Last TLE update: 9 hours ago

TLE from 9 hours ago
0 FALCON 9 R/B
1 60234U 24127B   26036.68986575 -.00000189  00000-0  37238-2 0  9996
2 60234  26.7317  28.3603 8345483 320.7266   1.6883  1.03893457  5726
Epoch: 2026-02-05T16:33Z
TLE epoch observation values (Epoch: 2026-02-05T16:33:24.400Z)
Latitude
-0.00051°
Longitude
4.27247°
Altitude
1,173.666 km
Speed
9.792 km/s
True Right ascension
01h 53m 51s
True Declination
0° 00' 02"
Sunlit
Object was in daylight at epoch
Visualization orbit readout
Latitude
Unknown
Longitude
Unknown
Altitude
Unknown
Speed
Unknown
Apparent Right ascension
Unknown
Apparent Declination
Unknown
Sunlit
N/A
Visualization observer readout
Local Sidereal Time
03:55:34
Azimuth
Unknown
Elevation
Unknown
Doppler factor
Unknown
Orbital elements
Apogee altitude
69,175.048 km
Perigee altitude
435.749 km
Semi-major axis
41,183.535 km
Eccentricity
0.83455
Inclination
26.7317°
RAAN
28.3603°
Arg. of periapsis
320.7266°
True anomaly
32.33646°
Mean anomaly
1.6883°
Eccentric anomaly
9.95214°
Mean motion
0.25969 °/min
Orbital period
1,386.26 mins
BSTAR
0.0037238
Loading maneuver chart data...
Computing Atmospheric mass density...
Loading historical data...
Loading historical data...
Loading historical data...
Loading historical data...
Loading historical data...
Loading historical data...
Loading historical data...
Other satellites on launch #127 in the year 2024 (2024-07-08 UTC)

Documentation

Showing up to 5 results
|